Location: Moscow
(55.7500°N, 37.5830°E)
Time: 17:36:00
(UTC+03:00)

Transit 2A - Pass Details

Date: 04 December 2021
Orbit: 591 x 967 km, 66.7° (Epoch: 21 January)

Event Time Altitude Azimuth Distance (km) Brightness Sun altitude
Rises 10:21:33 0° 314° (NW) 3,662 8.9 8.0°
Reaches altitude 10° 10:24:44 10° 299° (WNW) 2,715 8.4 8.2°
Maximum altitude 10:29:19 21° 253° (WSW) 2,000 8.1 8.5°
Drops below altitude 10° 10:33:48 10° 207° (SSW) 2,642 9.4 8.8°
Sets 10:36:52 0° 192° (SSW) 3,535 10.4 9.0°
